FW8186 Weather Reports


Display with metric or nautical units.
time (UTC)temp
F
wind
direction
speed
MPH
gust
MPH
rain 1hr
in
rain 24hr
in
rain mn
in
humidity
%
barometer
mb
20260507194503 72 252 7.0 11.0 0.00 0.00 0.00 31 1060.3
20260507193003 71 239 12.0 12.0 0.00 0.00 0.00 34 1060.3
20260507191502 72 150 8.0 11.0 0.00 0.00 0.00 34 1060.6
20260507190003 70 197 11.0 15.0 0.00 0.00 0.00 33 1061.0
20260507184503 69 293 6.0 16.0 0.00 0.00 0.00 34 1061.3
20260507183502 71 224 7.0 12.0 0.00 0.00 0.00 34 1061.3
20260507182005 70 240 7.0 13.0 0.00 0.00 0.00 36 1061.3
20260507180002 68 219 7.0 16.0 0.00 0.00 0.00 37 1061.6
20260507174503 67 238 9.0 13.0 0.00 0.00 0.00 37 1062.3
20260507173004 68 216 12.0 12.0 0.00 0.00 0.00 36 1062.3
20260507171502 66 241 12.0 12.0 0.00 0.00 0.00 38 1062.6
20260507170003 67 172 11.0 11.0 0.00 0.00 0.00 37 1063.0
20260507164502 65 286 6.0 14.0 0.00 0.00 0.00 39 1063.0
20260507163003 67 205 10.0 10.0 0.00 0.00 0.00 37 1063.3
20260507161503 64 204 8.0 11.0 0.00 0.00 0.00 40 1063.3
20260507160003 63 221 10.0 13.0 0.00 0.00 0.00 39 1063.7
20260507154502 63 265 7.0 12.0 0.00 0.00 0.00 40 1063.7
20260507153003 62 214 8.0 10.0 0.00 0.00 0.00 40 1064.0
20260507151502 62 213 8.0 13.0 0.00 0.00 0.00 41 1064.0
20260507144503 60 266 6.0 8.0 0.00 0.00 0.00 44 1064.3
20260507141503 59 198 7.0 7.0 0.00 0.00 0.00 47 1064.7
20260507140003 58 212 3.0 7.0 0.00 0.00 0.00 50 1064.7
20260507134502 56 220 3.0 7.0 0.00 0.00 0.00 54 1064.7
20260507131503 53 215 3.0 4.0 0.00 0.00 0.00 64 1064.3
20260507130004 51 214 4.0 5.0 0.00 0.00 0.00 68 1064.7
20260507124503 50 217 3.0 5.0 0.00 0.00 0.00 70 1064.3
20260507123502 49 217 5.0 5.0 0.00 0.00 0.00 71 1064.0
20260507122003 49 205 3.0 4.0 0.00 0.00 0.00 72 1063.7
20260507120502 48 194 3.0 3.0 0.00 0.00 0.00 74 1063.3
20260507115002 47 218 2.0 2.0 0.00 0.00 0.00 76 1063.7
20260507113502 48 219 2.0 2.0 0.00 0.00 0.00 77 1063.3
20260507112002 48 303 0.0 2.0 0.00 0.00 0.00 75 1063.3
20260507105003 48 323 0.0 3.0 0.00 0.00 0.00 73 1063.3
20260507103503 49 301 2.0 3.0 0.00 0.00 0.00 70 1063.3
20260507102502 49 327 3.0 4.0 0.00 0.00 0.00 70 1063.3
20260507095502 48 329 2.0 3.0 0.00 0.00 0.00 71 1063.0
20260507094502 49 281 1.0 2.0 0.00 0.00 0.00 71 1063.0
20260507090003 49 294 0.0 0.0 0.00 0.00 0.00 71 1062.6
20260507084503 49 342 2.0 3.0 0.00 0.00 0.00 71 1063.0
20260507083502 49 312 2.0 3.0 0.00 0.00 0.00 70 1062.6
20260507080502 49 292 0.0 0.0 0.00 0.00 0.00 69 1063.0
20260507075002 49 294 0.0 0.0 0.00 0.00 0.00 67 1063.0
20260507073502 49 301 2.0 2.0 0.00 0.00 0.00 68 1063.0
20260507072007 50 276 0.0 0.0 0.00 0.00 0.00 65 1063.0
20260507071002 50 290 1.0 2.0 0.00 0.00 0.00 65 1063.0
20260507065502 51 175 2.0 2.0 0.00 0.00 0.00 62 1063.0
20260507064002 51 152 2.0 2.0 0.00 0.00 0.00 61 1063.0
20260507062502 52 15 2.0 4.0 0.00 0.00 0.00 59 1063.3
20260507055504 53 9 3.0 4.0 0.00 0.00 0.00 59 1063.7
20260507054003 53 3 0.0 0.0 0.00 0.00 0.00 58 1063.7
20260507052503 53 9 3.0 3.0 0.00 0.00 0.00 59 1063.3
20260507051009 53 22 2.0 3.0 0.00 0.00 0.00 58 1063.3
20260507050007 54 17 5.0 5.0 0.00 0.00 0.00 57 1063.3
20260507044508 54 0 3.0 4.0 0.00 0.00 0.00 58 1063.0
20260507043003 53 335 3.0 4.0 0.00 0.00 0.00 59 1063.0
20260507042003 53 351 3.0 5.0 0.00 0.00 0.00 59 1062.0
20260507040502 54 35 4.0 6.0 0.00 0.00 0.00 57 1062.0
20260507035004 55 46 4.0 6.0 0.00 0.00 0.00 55 1062.3
20260507033503 55 22 3.0 6.0 0.00 0.00 0.00 55 1062.3
20260507032002 56 6 3.0 6.0 0.00 0.00 0.00 54 1062.0
20260507030503 56 19 3.0 4.0 0.00 0.00 0.00 53 1062.0
20260507025003 57 30 4.0 6.0 0.00 0.00 0.00 51 1061.6
20260507023502 58 40 4.0 7.0 0.00 0.00 0.00 50 1061.6
20260507020503 59 12 6.0 9.0 0.00 0.00 0.00 48 1061.0
20260507015002 60 21 5.0 9.0 0.00 0.00 0.00 48 1061.0
20260507013502 60 60 7.0 13.0 0.00 0.00 0.00 48 1060.6
20260507012003 61 18 6.0 10.0 0.00 0.00 0.00 47 1060.6
20260507010502 61 41 7.0 10.0 0.00 0.00 0.00 46 1060.6
20260507005002 62 31 5.0 8.0 0.00 0.00 0.00 47 1060.3
20260507002003 62 33 7.0 11.0 0.00 0.00 0.00 45 1060.3
20260506235220 63 31 6.0 9.0 0.00 0.00 0.00 44 1059.9
20260506233002 64 48 10.0 16.0 0.00 0.00 0.00 43 1059.6
20260506231503 63 37 10.0 14.0 0.00 0.00 0.00 43 1059.6
20260506230003 64 68 11.0 11.0 0.00 0.00 0.00 43 1059.3
20260506224503 64 75 9.0 11.0 0.00 0.00 0.00 42 1059.3
20260506223003 64 115 7.0 14.0 0.00 0.00 0.00 43 1059.3
20260506220003 63 37 9.0 11.0 0.00 0.00 0.00 45 1059.6
20260506214502 63 80 12.0 14.0 0.00 0.00 0.00 44 1059.6
20260506213003 63 54 12.0 12.0 0.00 0.00 0.00 46 1059.9
20260506212002 63 56 12.0 13.0 0.00 0.00 0.00 46 1059.9
20260506210503 62 51 15.0 15.0 0.00 0.00 0.00 47 1059.9
20260506205003 62 42 11.0 15.0 0.00 0.00 0.00 48 1060.3
20260506203503 61 47 12.0 16.0 0.00 0.00 0.00 48 1060.3
20260506202502 61 36 9.0 15.0 0.00 0.00 0.00 49 1060.3
20260506201004 61 48 12.0 16.0 0.00 0.00 0.00 49 1060.3